Time,TemperatureF,DewpointF,PressureIn,WindDirection,WindDirectionDegrees,WindSpeedMPH,WindSpeedGustMPH,Humidity,HourlyPrecipIn,Conditions,Clouds,dailyrainin,SolarRadiationWatts/m^2,SoftwareType,DateUTC
2013-11-14 00:03:00,32.0,25.0,-100.00,NNE,21,0.0,0.0,75,0.00,,,0.00,0.000000,,2013-11-14 06:03:00,
2013-11-14 00:12:00,32.0,25.0,-100.00,NNE,21,0.0,0.0,75,0.00,,,0.00,0.000000,,2013-11-14 06:12:00,
2013-11-14 00:22:00,32.0,25.0,-100.00,NNE,21,0.0,0.0,75,0.00,,,0.00,0.000000,,2013-11-14 06:22:00,
2013-11-14 00:32:00,30.0,24.0,-100.00,NE,51,0.0,0.0,79,0.00,,,0.00,0.000000,,2013-11-14 06:32:00,
2013-11-14 00:52:00,30.0,24.0,-100.00,NE,51,0.0,0.0,79,0.00,,,0.00,0.000000,,2013-11-14 06:52:00,
2013-11-14 01:02:00,30.0,24.0,-100.00,NE,51,0.0,0.0,79,0.00,,,0.00,0.000000,,2013-11-14 07:02:00,
2013-11-14 01:11:00,30.0,24.0,-100.00,NE,51,0.0,0.0,79,0.00,,,0.00,0.000000,,2013-11-14 07:11:00,
2013-11-14 01:22:00,30.0,24.0,-100.00,NE,51,0.0,0.0,79,0.00,,,0.00,0.000000,,2013-11-14 07:22:00,
2013-11-14 01:32:00,30.0,24.0,-100.00,NNE,24,0.0,0.0,78,0.00,,,0.00,0.000000,,2013-11-14 07:32:00,
2013-11-14 01:53:00,30.0,24.0,-100.00,NNE,24,0.0,0.0,78,0.00,,,0.00,0.000000,,2013-11-14 07:53:00,
2013-11-14 02:01:00,30.0,24.0,-100.00,NNE,24,0.0,0.0,78,0.00,,,0.00,0.000000,,2013-11-14 08:01:00,
2013-11-14 02:12:00,30.0,24.0,-100.00,NNE,24,0.0,0.0,78,0.00,,,0.00,0.000000,,2013-11-14 08:12:00,
2013-11-14 02:22:00,30.0,24.0,-100.00,NNE,24,0.0,0.0,78,0.00,,,0.00,0.000000,,2013-11-14 08:22:00,
2013-11-14 02:32:00,30.0,25.0,-100.00,NNE,31,0.0,0.0,81,0.00,,,0.00,0.000000,,2013-11-14 08:32:00,
2013-11-14 02:53:00,30.0,25.0,-100.00,NNE,31,0.0,0.0,81,0.00,,,0.00,0.000000,,2013-11-14 08:53:00,
2013-11-14 03:02:00,30.0,25.0,-100.00,NNE,31,0.0,0.0,81,0.00,,,0.00,0.000000,,2013-11-14 09:02:00,
2013-11-14 03:11:00,30.0,25.0,-100.00,NNE,31,0.0,0.0,81,0.00,,,0.00,0.000000,,2013-11-14 09:11:00,
2013-11-14 03:22:00,30.0,25.0,-100.00,NNE,31,0.0,0.0,81,0.00,,,0.00,0.000000,,2013-11-14 09:22:00,
2013-11-14 03:32:00,29.0,24.0,-100.00,NE,53,0.0,0.0,81,0.00,,,0.00,0.000000,,2013-11-14 09:32:00,
2013-11-14 03:53:00,29.0,24.0,-100.00,NE,53,0.0,0.0,81,0.00,,,0.00,0.000000,,2013-11-14 09:53:00,
2013-11-14 04:03:00,29.0,24.0,-100.00,NE,53,0.0,0.0,81,0.00,,,0.00,0.000000,,2013-11-14 10:03:00,
2013-11-14 04:12:00,29.0,24.0,-100.00,NE,53,0.0,0.0,81,0.00,,,0.00,0.000000,,2013-11-14 10:12:00,
2013-11-14 04:23:00,29.0,24.0,-100.00,NE,53,0.0,0.0,81,0.00,,,0.00,0.000000,,2013-11-14 10:23:00,
2013-11-14 04:32:00,29.0,24.0,-100.00,NE,53,0.0,0.0,80,0.00,,,0.00,0.000000,,2013-11-14 10:32:00,
2013-11-14 04:52:00,29.0,24.0,-100.00,NE,53,0.0,0.0,80,0.00,,,0.00,0.000000,,2013-11-14 10:52:00,
2013-11-14 05:02:00,29.0,24.0,-100.00,NE,53,0.0,0.0,80,0.00,,,0.00,0.000000,,2013-11-14 11:02:00,
2013-11-14 05:11:00,29.0,24.0,-100.00,NE,53,0.0,0.0,80,0.00,,,0.00,0.000000,,2013-11-14 11:11:00,
2013-11-14 05:22:00,29.0,24.0,-100.00,NE,53,0.0,0.0,80,0.00,,,0.00,0.000000,,2013-11-14 11:22:00,
2013-11-14 05:32:00,30.0,23.0,-100.00,ENE,64,3.0,6.0,76,0.00,,,0.00,0.000000,,2013-11-14 11:32:00,
2013-11-14 05:52:00,30.0,23.0,-100.00,ENE,64,3.0,6.0,76,0.00,,,0.00,0.000000,,2013-11-14 11:52:00,
2013-11-14 06:02:00,30.0,23.0,-100.00,ENE,64,3.0,6.0,76,0.00,,,0.00,0.000000,,2013-11-14 12:02:00,
2013-11-14 06:12:00,30.0,23.0,-100.00,ENE,64,3.0,6.0,76,0.00,,,0.00,0.000000,,2013-11-14 12:12:00,
2013-11-14 06:21:00,30.0,23.0,-100.00,ENE,64,3.0,6.0,76,0.00,,,0.00,0.000000,,2013-11-14 12:21:00,
2013-11-14 06:32:00,28.0,23.0,-100.00,NNE,23,0.0,6.0,80,0.00,,,0.00,0.000000,,2013-11-14 12:32:00,
2013-11-14 06:52:00,28.0,23.0,-100.00,NNE,23,0.0,6.0,80,0.00,,,0.00,0.000000,,2013-11-14 12:52:00,
2013-11-14 07:02:00,28.0,23.0,-100.00,NNE,23,0.0,6.0,80,0.00,,,0.00,0.000000,,2013-11-14 13:02:00,
2013-11-14 07:11:00,28.0,23.0,-100.00,NNE,23,0.0,6.0,80,0.00,,,0.00,0.000000,,2013-11-14 13:11:00,
2013-11-14 07:22:00,28.0,23.0,-100.00,NNE,23,0.0,6.0,80,0.00,,,0.00,0.000000,,2013-11-14 13:22:00,
2013-11-14 07:32:00,29.0,24.0,-100.00,NE,47,1.0,4.0,82,0.00,,,0.00,19.000000,,2013-11-14 13:32:00,
2013-11-14 07:52:00,29.0,24.0,-100.00,NE,47,1.0,4.0,82,0.00,,,0.00,19.000000,,2013-11-14 13:52:00,
2013-11-14 08:02:00,29.0,24.0,-100.00,NE,47,1.0,4.0,82,0.00,,,0.00,19.000000,,2013-11-14 14:02:00,
2013-11-14 08:11:00,29.0,24.0,-100.00,NE,47,1.0,4.0,82,0.00,,,0.00,19.000000,,2013-11-14 14:11:00,
2013-11-14 08:22:00,29.0,24.0,-100.00,NE,47,1.0,4.0,82,0.00,,,0.00,19.000000,,2013-11-14 14:22:00,
2013-11-14 08:32:00,37.0,27.0,-100.00,NE,37,1.0,5.0,68,0.00,,,0.00,195.000000,,2013-11-14 14:32:00,
2013-11-14 08:52:00,37.0,27.0,-100.00,NE,37,1.0,5.0,68,0.00,,,0.00,195.000000,,2013-11-14 14:52:00,
2013-11-14 09:02:00,37.0,27.0,-100.00,NE,37,1.0,5.0,68,0.00,,,0.00,195.000000,,2013-11-14 15:02:00,
2013-11-14 09:11:00,37.0,27.0,-100.00,NE,37,1.0,5.0,68,0.00,,,0.00,195.000000,,2013-11-14 15:11:00,
2013-11-14 09:22:00,37.0,27.0,-100.00,NE,37,1.0,5.0,68,0.00,,,0.00,195.000000,,2013-11-14 15:22:00,
2013-11-14 09:32:00,45.0,26.0,-100.00,SE,124,3.0,6.0,47,0.00,,,0.00,403.000000,,2013-11-14 15:32:00,
2013-11-14 09:53:00,45.0,26.0,-100.00,SE,124,3.0,6.0,47,0.00,,,0.00,403.000000,,2013-11-14 15:53:00,
2013-11-14 10:03:00,45.0,26.0,-100.00,SE,124,3.0,6.0,47,0.00,,,0.00,403.000000,,2013-11-14 16:03:00,
2013-11-14 10:13:00,45.0,26.0,-100.00,SE,124,3.0,6.0,47,0.00,,,0.00,403.000000,,2013-11-14 16:13:00,
2013-11-14 10:23:00,45.0,26.0,-100.00,SE,124,3.0,6.0,47,0.00,,,0.00,403.000000,,2013-11-14 16:23:00,
2013-11-14 10:32:00,52.0,27.0,-100.00,SSE,149,3.0,6.0,38,0.00,,,0.00,550.000000,,2013-11-14 16:32:00,
2013-11-14 11:13:00,52.0,27.0,-100.00,SSE,149,3.0,6.0,38,0.00,,,0.00,550.000000,,2013-11-14 17:13:00,
2013-11-14 11:22:00,52.0,27.0,-100.00,SSE,149,3.0,6.0,38,0.00,,,0.00,550.000000,,2013-11-14 17:22:00,
2013-11-14 11:32:00,57.0,31.0,-100.00,SE,133,4.0,9.0,37,0.00,,,0.00,665.000000,,2013-11-14 17:32:00,
2013-11-14 12:12:00,57.0,31.0,-100.00,SE,133,4.0,9.0,37,0.00,,,0.00,665.000000,,2013-11-14 18:12:00,
2013-11-14 12:21:00,57.0,31.0,-100.00,SE,133,4.0,9.0,37,0.00,,,0.00,665.000000,,2013-11-14 18:21:00,
2013-11-14 12:32:00,58.0,34.0,-100.00,SSE,167,6.0,10.0,40,0.00,,,0.00,674.000000,,2013-11-14 18:32:00,
2013-11-14 13:11:00,58.0,34.0,-100.00,SSE,167,6.0,10.0,40,0.00,,,0.00,674.000000,,2013-11-14 19:11:00,
2013-11-14 13:21:00,58.0,34.0,-100.00,SSE,167,6.0,10.0,40,0.00,,,0.00,674.000000,,2013-11-14 19:21:00,
2013-11-14 13:32:00,60.0,37.0,-100.00,South,177,6.0,11.0,42,0.00,,,0.00,575.000000,,2013-11-14 19:32:00,
2013-11-14 13:52:00,60.0,37.0,-100.00,South,177,6.0,11.0,42,0.00,,,0.00,575.000000,,2013-11-14 19:52:00,
2013-11-14 14:02:00,60.0,37.0,-100.00,South,177,6.0,11.0,42,0.00,,,0.00,575.000000,,2013-11-14 20:02:00,
2013-11-14 14:12:00,60.0,37.0,-100.00,South,177,6.0,11.0,42,0.00,,,0.00,575.000000,,2013-11-14 20:12:00,
2013-11-14 14:22:00,60.0,37.0,-100.00,South,177,6.0,11.0,42,0.00,,,0.00,575.000000,,2013-11-14 20:22:00,
2013-11-14 14:32:00,58.0,37.0,-100.00,SSW,208,5.0,10.0,45,0.00,,,0.00,331.000000,,2013-11-14 20:32:00,
2013-11-14 14:52:00,58.0,37.0,-100.00,SSW,208,5.0,10.0,45,0.00,,,0.00,331.000000,,2013-11-14 20:52:00,
2013-11-14 15:02:00,58.0,37.0,-100.00,SSW,208,5.0,10.0,45,0.00,,,0.00,331.000000,,2013-11-14 21:02:00,
2013-11-14 15:11:00,58.0,37.0,-100.00,SSW,208,5.0,10.0,45,0.00,,,0.00,331.000000,,2013-11-14 21:11:00,
2013-11-14 15:22:00,58.0,37.0,-100.00,SSW,208,5.0,10.0,45,0.00,,,0.00,331.000000,,2013-11-14 21:22:00,
2013-11-14 15:32:00,59.0,38.0,-100.00,SSW,196,0.0,8.0,45,0.00,,,0.00,233.000000,,2013-11-14 21:32:00,
2013-11-14 15:53:00,59.0,38.0,-100.00,SSW,196,0.0,8.0,45,0.00,,,0.00,233.000000,,2013-11-14 21:53:00,
2013-11-14 16:03:00,59.0,38.0,-100.00,SSW,196,0.0,8.0,45,0.00,,,0.00,233.000000,,2013-11-14 22:03:00,
2013-11-14 16:13:00,59.0,38.0,-100.00,SSW,196,0.0,8.0,45,0.00,,,0.00,233.000000,,2013-11-14 22:13:00,
2013-11-14 16:23:00,59.0,38.0,-100.00,SSW,196,0.0,8.0,45,0.00,,,0.00,233.000000,,2013-11-14 22:23:00,
2013-11-14 16:32:00,56.0,43.0,-100.00,NE,36,0.0,4.0,61,0.00,,,0.00,104.000000,,2013-11-14 22:32:00,
2013-11-14 16:53:00,56.0,43.0,-100.00,NE,36,0.0,4.0,61,0.00,,,0.00,104.000000,,2013-11-14 22:53:00,
2013-11-14 17:02:00,56.0,43.0,-100.00,NE,36,0.0,4.0,61,0.00,,,0.00,104.000000,,2013-11-14 23:02:00,
2013-11-14 17:12:00,56.0,43.0,-100.00,NE,36,0.0,4.0,61,0.00,,,0.00,104.000000,,2013-11-14 23:12:00,
2013-11-14 17:22:00,56.0,43.0,-100.00,NE,36,0.0,4.0,61,0.00,,,0.00,104.000000,,2013-11-14 23:22:00,
2013-11-14 17:32:00,51.0,44.0,-100.00,ESE,114,0.0,0.0,76,0.00,,,0.00,17.000000,,2013-11-14 23:32:00,
2013-11-14 17:52:00,51.0,44.0,-100.00,ESE,114,0.0,0.0,76,0.00,,,0.00,17.000000,,2013-11-14 23:52:00,
2013-11-14 18:02:00,51.0,44.0,-100.00,ESE,114,0.0,0.0,76,0.00,,,0.00,17.000000,,2013-11-15 00:02:00,
2013-11-14 18:11:00,51.0,44.0,-100.00,ESE,114,0.0,0.0,76,0.00,,,0.00,17.000000,,2013-11-15 00:11:00,
2013-11-14 18:21:00,51.0,44.0,-100.00,ESE,114,0.0,0.0,76,0.00,,,0.00,17.000000,,2013-11-15 00:21:00,
2013-11-14 18:32:00,49.0,43.0,-100.00,NW,304,0.0,0.0,80,0.00,,,0.00,0.000000,,2013-11-15 00:32:00,
2013-11-14 18:52:00,49.0,43.0,-100.00,NW,304,0.0,0.0,80,0.00,,,0.00,0.000000,,2013-11-15 00:52:00,
2013-11-14 19:01:00,49.0,43.0,-100.00,NW,304,0.0,0.0,80,0.00,,,0.00,0.000000,,2013-11-15 01:01:00,
2013-11-14 19:12:00,49.0,43.0,-100.00,NW,304,0.0,0.0,80,0.00,,,0.00,0.000000,,2013-11-15 01:12:00,
2013-11-14 19:22:00,49.0,43.0,-100.00,NW,304,0.0,0.0,80,0.00,,,0.00,0.000000,,2013-11-15 01:22:00,
2013-11-14 19:32:00,48.0,43.0,-100.00,SW,234,0.0,0.0,83,0.00,,,0.00,0.000000,,2013-11-15 01:32:00,
2013-11-14 19:52:00,48.0,43.0,-100.00,SW,234,0.0,0.0,83,0.00,,,0.00,0.000000,,2013-11-15 01:52:00,
2013-11-14 20:02:00,48.0,43.0,-100.00,SW,234,0.0,0.0,83,0.00,,,0.00,0.000000,,2013-11-15 02:02:00,
2013-11-14 20:12:00,48.0,43.0,-100.00,SW,234,0.0,0.0,83,0.00,,,0.00,0.000000,,2013-11-15 02:12:00,
2013-11-14 20:22:00,48.0,43.0,-100.00,SW,234,0.0,0.0,83,0.00,,,0.00,0.000000,,2013-11-15 02:22:00,
2013-11-14 20:32:00,48.0,43.0,-100.00,East,87,0.0,0.0,83,0.00,,,0.00,0.000000,,2013-11-15 02:32:00,
2013-11-14 20:52:00,48.0,43.0,-100.00,East,87,0.0,0.0,83,0.00,,,0.00,0.000000,,2013-11-15 02:52:00,
2013-11-14 21:02:00,48.0,43.0,-100.00,East,87,0.0,0.0,83,0.00,,,0.00,0.000000,,2013-11-15 03:02:00,
2013-11-14 21:12:00,48.0,43.0,-100.00,East,87,0.0,0.0,83,0.00,,,0.00,0.000000,,2013-11-15 03:12:00,
2013-11-14 21:22:00,48.0,43.0,-100.00,East,87,0.0,0.0,83,0.00,,,0.00,0.000000,,2013-11-15 03:22:00,
2013-11-14 21:32:00,47.0,42.0,-100.00,NE,45,0.0,0.0,83,0.00,,,0.00,0.000000,,2013-11-15 03:32:00,
2013-11-14 21:54:00,47.0,42.0,-100.00,NE,45,0.0,0.0,83,0.00,,,0.00,0.000000,,2013-11-15 03:54:00,
2013-11-14 22:04:00,47.0,42.0,-100.00,NE,45,0.0,0.0,83,0.00,,,0.00,0.000000,,2013-11-15 04:04:00,
2013-11-14 22:14:00,47.0,42.0,-100.00,NE,45,0.0,0.0,83,0.00,,,0.00,0.000000,,2013-11-15 04:14:00,
2013-11-14 22:24:00,47.0,42.0,-100.00,NE,45,0.0,0.0,83,0.00,,,0.00,0.000000,,2013-11-15 04:24:00,
2013-11-14 22:32:00,45.0,40.0,-100.00,NE,39,0.0,0.0,83,0.00,,,0.00,0.000000,,2013-11-15 04:32:00,
2013-11-14 22:53:00,45.0,40.0,-100.00,NE,39,0.0,0.0,83,0.00,,,0.00,0.000000,,2013-11-15 04:53:00,
2013-11-14 23:03:00,45.0,40.0,-100.00,NE,39,0.0,0.0,83,0.00,,,0.00,0.000000,,2013-11-15 05:03:00,
2013-11-14 23:13:00,45.0,40.0,-100.00,NE,39,0.0,0.0,83,0.00,,,0.00,0.000000,,2013-11-15 05:13:00,
2013-11-14 23:22:00,45.0,40.0,-100.00,NE,39,0.0,0.0,83,0.00,,,0.00,0.000000,,2013-11-15 05:22:00,
2013-11-14 23:32:00,45.0,41.0,-100.00,NNE,31,0.0,0.0,85,0.00,,,0.00,0.000000,,2013-11-15 05:32:00,
2013-11-14 23:53:00,45.0,41.0,-100.00,NNE,31,0.0,0.0,85,0.00,,,0.00,0.000000,,2013-11-15 05:53:00,